This demonstration page uses our WeatherBlox Daily Observations layout. Learn more.

Left ArrowRight Arrow

34.74481, -87.66753

Hourly Observations for January 22, 2022

Temp ( °F °C ) Dew Point ( °F °C ) Humidity (%) Winds ( mph kmh ) Pressure ( in mb ) Visibility ( mi km ) Precip ( " mm )
12:53 am 00:53 Clear 24 -4.4 16 -8.9 71 71 NNE 5 7 30.41 1030 10 16 0.00 0.00
1:53 am 01:53 Clear 23 -5 16 -8.9 74 74 NNE 5 7 30.42 1030 10 16 0.00 0.00
2:53 am 02:53 Clear 22 -5.6 15 -9.4 75 75 N 5 7 30.43 1031 10 16 0.00 0.00
3:53 am 03:53 Clear 22 -5.6 15 -9.4 75 75 NNE 6 9 30.41 1030 10 16 0.00 0.00
4:53 am 04:53 Clear 20 -6.7 15 -9.4 81 81 N 8 13 30.43 1030 10 16 0.00 0.00
5:53 am 05:53 Clear 20 -6.7 15 -9.4 81 81 N 3 6 30.43 1031 10 16 0.00 0.00
6:53 am 06:53 Clear 20 -6.7 14 -10 78 78 N 5 7 30.45 1031 10 16 0.00 0.00
7:53 am 07:53 Sunny 22 -5.6 16 -8.9 78 78 ENE 5 7 30.47 1032 9 14 0.00 0.00
8:53 am 08:53 Sunny 24 -4.4 16 -8.9 71 71 E 7 11 30.48 1032 10 16 0.00 0.00
9:53 am 09:53 Sunny 26 -3.3 16 -8.9 66 66 VRB 3 6 30.49 1033 10 16 0.00 0.00
10:53 am 10:53 Sunny 28 -2.2 17 -8.3 63 63 Calm 30.48 1032 10 16 0.00 0.00
11:53 am 11:53 Sunny 33 0.6 19 -7.2 56 56 Calm 30.43 1031 10 16 0.00 0.00
12:53 pm 12:53 Sunny 35 1.7 16 -8.9 46 46 NNW 6 9 30.40 1030 10 16 0.00 0.00
1:53 pm 13:53 Sunny 37 2.8 18 -7.8 46 46 Calm 30.37 1029 10 16 0.00 0.00
2:53 pm 14:53 Sunny 38 3.3 16 -8.9 41 41 Calm 30.35 1028 10 16 0.00 0.00
3:53 pm 15:53 Sunny 38 3.3 16 -8.9 41 41 Calm 30.33 1027 10 16 0.00 0.00
4:53 pm 16:53 Sunny 35 1.7 17 -8.3 48 48 W 6 9 30.33 1027 10 16 0.00 0.00
5:53 pm 17:53 Clear 33 0.6 19 -7.2 56 56 WSW 5 7 30.32 1027 10 16 0.00 0.00
6:53 pm 18:53 Clear 31 -0.6 16 -8.9 54 54 WNW 6 9 30.32 1027 10 16 0.00 0.00
7:53 pm 19:53 Clear 31 -0.6 15 -9.4 52 52 WNW 3 6 30.32 1027 10 16 0.00 0.00
8:53 pm 20:53 Clear 29 -1.7 16 -8.9 58 58 Calm 30.31 1027 10 16 0.00 0.00
9:53 pm 21:53 Clear 26 -3.3 18 -7.8 71 71 Calm 30.31 1027 10 16 0.00 0.00
10:53 pm 22:53 Clear 28 -2.2 18 -7.8 66 66 Calm 30.30 1026 10 16 0.00 0.00
11:53 pm 23:53 Clear 25 -3.9 18 -7.8 75 75 Calm 30.28 1025 10 16 0.00 0.00

Powered by AerisWeather